This is the latest recevied weather packets stored in our database for station/object SR9NSK-1. If no packets are shown the sender has not sent any weather packets the latest 1 day(s).
| Time | Temp. | Humidity | Pressure | Rain* | Wind** | Luminosity | Snow |
|---|---|---|---|---|---|---|---|
| 1778015350 | 10.56° C | 52% | 869.3 hPa | - | 4.47 m/s, 143° | - | - |
| 1778015230 | 10.56° C | 52% | 869.3 hPa | - | 4.02 m/s, 142° | - | - |
| 1778015110 | 10.56° C | 52% | 869.3 hPa | - | 5.36 m/s, 142° | - | - |
| 1778014990 | 10.56° C | 52% | 869.4 hPa | - | 4.92 m/s, 137° | - | - |
| 1778014870 | 10.56° C | 52% | 869.4 hPa | - | 4.92 m/s, 133° | - | - |
| 1778014748 | 10.56° C | 52% | 869.3 hPa | - | 5.81 m/s, 134° | - | - |
| 1778014628 | 10.56° C | 52% | 869.4 hPa | - | 6.71 m/s, 134° | - | - |
| 1778014508 | 10.56° C | 52% | 869.4 hPa | - | 4.47 m/s, 138° | - | - |
| 1778014386 | 10.56° C | 52% | 869.5 hPa | - | 4.02 m/s, 137° | - | - |
| 1778014266 | 10.56° C | 52% | 869.5 hPa | - | 5.36 m/s, 124° | - | - |
| 1778014146 | 10.56° C | 52% | 869.5 hPa | - | 4.92 m/s, 143° | - | - |
| 1778014026 | 10.56° C | 52% | 869.5 hPa | - | 5.36 m/s, 146° | - | - |
| 1778013906 | 10.56° C | 51% | 869.5 hPa | - | 5.36 m/s, 144° | - | - |
| 1778013785 | 11.11° C | 51% | 869.6 hPa | - | 4.47 m/s, 135° | - | - |
| 1778013665 | 11.11° C | 51% | 869.6 hPa | - | 4.92 m/s, 133° | - | - |
| 1778013545 | 11.11° C | 51% | 869.5 hPa | - | 4.92 m/s, 129° | - | - |
| 1778013426 | 11.11° C | 51% | 869.5 hPa | - | 4.92 m/s, 129° | - | - |
| 1778013305 | 11.11° C | 51% | 869.6 hPa | - | 5.81 m/s, 133° | - | - |
| 1778013183 | 11.11° C | 51% | 869.5 hPa | - | 4.47 m/s, 145° | - | - |
| 1778013063 | 11.11° C | 51% | 869.6 hPa | - | 2.68 m/s, 128° | - | - |
| 1778012943 | 11.11° C | 51% | 869.7 hPa | - | 3.58 m/s, 132° | - | - |
| 1778012823 | 11.11° C | 51% | 869.6 hPa | - | 4.92 m/s, 135° | - | - |
| 1778012703 | 11.11° C | 51% | 869.7 hPa | - | 5.36 m/s, 133° | - | - |
| 1778012583 | 11.11° C | 51% | 869.6 hPa | - | 5.36 m/s, 136° | - | - |
| 1778012463 | 11.11° C | 50% | 869.6 hPa | - | 4.92 m/s, 143° | - | - |
* Rain since midnight (hover to see other rain measurements)
** Current wind speed in m/s (hover to see current wind gust speed)